Regional Weather Roundup
Issued by NWS

Home | Current Version | Previous Version | Graphics & Text | Print | Product List | Glossary On
Versions: 1 2 3 4 5 6 7 8 9 10 11 12 13 14 15 16 17 18 19 20 21 22 23 24 25 26 27 28 29 30 31 32 33 34 35 36 37 38 39 40 41 42 43 44 45 46 47 48 49 50
543
ASUS43 KFSD 220110
RWRSD

WEATHER ROUNDUP FOR SOUTH DAKOTA
NATIONAL WEATHER SERVICE SIOUX FALLS SD
800 PM CDT SAT OCT 21 2017

NOTE: "FAIR" INDICATES FEW OR NO CLOUDS BELOW 12,000 FEET WITH NO
SIGNIFICANT WEATHER AND/OR OBSTRUCTIONS TO VISIBILITY.


SDZ001>005-009-010-012>017-220200-
NORTHWEST AND NORTH CENTRAL SOUTH DAKOTA

CITY           SKY/WX    TMP DP  RH WIND       PRES   REMARKS
BUFFALO          N/A     43  22  43 W10       29.83R
MOBRIDGE       CLOUDY    51  39  63 NW3       29.81R
$$

SDZ012>016-024>037-041>051-057-063-072>074-220200-
SOUTHWEST AND SOUTH CENTRAL SOUTH DAKOTA

CITY           SKY/WX    TMP DP  RH WIND       PRES   REMARKS
RAPID CTY ARPT CLEAR     37  18  46 NW10      29.95R
PIERRE         MOCLDY    51  37  58 W8        29.89R
CUSTER         CLEAR     37  11  34 W6        29.98R
ELLSWORTH AFB  CLEAR     40  17  39 NW7       29.94R
PHILIP         MOCLDY    50  28  42 NW8       29.93R
PINE RIDGE     CLEAR     41  18  39 SW3       29.98R
SPEARFISH      FAIR      45  18  33 W8        29.95R
WINNER         FAIR      47  33  58 W9        29.93R
$$

SDZ004>011-016>023-039-040-220200-
NORTHEAST SOUTH DAKOTA

CITY           SKY/WX    TMP DP  RH WIND       PRES   REMARKS
ABERDEEN       CLOUDY    53  40  61 W15G25    29.82R
WATERTOWN      PTCLDY    45  41  86 SW7       29.82R
BROOKINGS      CLEAR     46  40  79 SW8       29.87R
SISSETON         N/A     50  42  74 CALM      29.77R
$$

SDZ017-020-022-023-036>040-048>070-220200-
SOUTHEAST SOUTH DAKOTA

CITY           SKY/WX    TMP DP  RH WIND       PRES   REMARKS
SIOUX FALLS    CLEAR     50  41  71 SW3       29.90R
HURON          CLOUDY    50  38  63 W7        29.87R
CHAMBERLAIN    MOCLDY    50  36  58 W5        29.91R
MITCHELL       CLEAR     50  36  58 SW7       29.90R
YANKTON        CLEAR     49  39  68 SW6       29.93R
$$

ABBREVIATIONS USED IN REMARKS
   TC - TEMPERATURE IN CELSIUS
  WCI - WIND CHILL INDEX
   HX - HEAT INDEX
  VSB - VISIBILITY





USA.gov is the U.S. government's official web portal to all federal, state and local government web resources and services.